1502125200.3,8360,21.94,74388.5,6.65,-22.83,-25.09,0,*40
1502125201.52,8361,21.94,74388.3,6.65,-23.13,-25.39,0,*4A
1502125202.74,8362,21.94,74390.3,6.65,-23.13,-25.35,0,*45
1502125203.94,8363,21.88,74386.5,6.63,-22.97,-25.23,0,*48
1502125205.17,8364,21.94,74388.8,6.65,-23.13,-25.39,0,*4F
1502125206.41,8365,21.94,74390.5,6.65,-23.23,-25.39,0,*4D
1502125207.69,8366,21.94,74388.5,6.65,-23.29,-25.55,0,*4E
1502125208.91,8367,21.94,74388.3,6.63,-23.29,-25.39,0,*43
1502125210.16,8368,21.94,74388.8,6.65,-23.29,-25.61,0,*47
1502125211.44,8369,21.88,74388.0,6.65,-23.29,-25.55,0,*41
1502125212.69,8370,21.94,74390.8,6.65,-23.23,-25.49,0,*4E
1502125213.93,8371,21.94,74392.5,6.65,-23.23,-25.39,0,*48
1502125215.14,8372,21.88,74390.5,6.63,-23.13,-25.49,0,*49
1502125216.36,8373,21.94,74390.8,6.63,-23.23,-25.39,0,*4C
1502125217.58,8374,21.94,74388.0,6.63,-23.29,-25.39,0,*41
1502125218.81,8375,21.94,74394.5,6.63,-23.23,-25.49,0,*4D
1502125220.01,8376,21.94,74390.8,6.63,-23.13,-25.39,0,*4A
1502125221.2,8377,21.88,74386.5,6.63,-23.13,-25.35,0,*47
1502125222.4,8378,21.94,74390.5,6.63,-22.83,-25.09,0,*4F
1502125223.6,8379,21.94,74388.0,6.63,-22.97,-25.23,0,*43
1502125224.8,8380,21.94,74388.0,6.63,-23.13,-25.35,0,*4F
1502125226.03,8381,21.94,74390.0,6.63,-23.29,-25.49,0,*4C
1502125227.28,8382,21.88,74386.0,6.63,-23.29,-25.55,0,*42
1502125228.5,8383,21.94,74390.5,6.63,-23.29,-25.39,0,*49
1502125229.77,8384,21.94,74388.5,6.61,-23.29,-25.45,0,*47
1502125231.02,8385,21.94,74390.3,6.61,-23.33,-25.61,0,*4B
1502125232.28,8386,21.94,74390.5,6.61,-23.33,-25.61,0,*48
1502125233.53,8387,21.94,74390.5,6.59,-23.29,-25.55,0,*4E
1502125234.78,8388,21.94,74388.5,6.59,-23.29,-25.45,0,*40
1502125236.0,8389,21.94,74390.0,6.61,-22.97,-25.23,0,*4E
1502125237.25,8390,21.88,74386.5,6.61,-23.13,-25.29,0,*41
1502125238.48,8391,21.94,74390.5,6.59,-23.19,-25.39,0,*40
1502125239.71,8392,21.94,74390.0,6.61,-23.13,-25.39,0,*42
1502125240.98,8393,21.94,74388.5,6.61,-23.19,-25.45,0,*42
1502125242.2,8394,21.94,74390.0,6.63,-23.23,-25.39,0,*45
1502125243.47,8395,21.94,74388.5,6.61,-23.03,-25.29,0,*45
1502125244.72,8396,21.94,74386.3,6.61,-23.13,-25.29,0,*47
1502125245.97,8397,21.94,74388.5,6.61,-23.13,-25.29,0,*46
1502125247.22,8398,21.94,74388.8,6.61,-23.19,-25.39,0,*42
1502125248.47,8399,21.94,74384.5,6.61,-23.13,-25.29,0,*48
1502125249.67,8400,21.94,74384.3,6.59,-22.87,-25.13,0,*41
1502125250.92,8401,21.94,74388.8,6.61,-23.03,-25.23,0,*45
1502125252.17,8402,21.94,74390.8,6.61,-23.03,-25.39,0,*4D
1502125253.42,8403,21.94,74390.0,6.61,-23.03,-25.13,0,*44
1502125254.66,8404,21.94,74390.5,6.61,-22.73,-24.97,0,*48
1502125255.91,8405,21.94,74388.3,6.61,-23.03,-25.23,0,*41
1502125257.13,8406,21.94,74390.5,6.63,-23.19,-25.35,0,*4C
1502125258.38,8407,21.88,74384.5,6.61,-23.19,-25.39,0,*43
1502125259.65,8408,21.94,74390.8,6.61,-23.19,-25.45,0,*47
1502125260.88,8409,21.94,74390.3,6.61,-23.13,-25.39,0,*47
1502125262.15,8410,21.94,74386.8,6.61,-23.29,-25.55,0,*4C
1502125263.41,8411,21.94,74388.3,6.59,-23.19,-25.55,0,*45
1502125264.69,8412,21.94,74384.3,6.61,-23.29,-25.55,0,*4E
1502125265.94,8413,21.94,74388.8,6.59,-23.33,-25.45,0,*4E
1502125267.19,8414,21.94,74390.5,6.61,-23.29,-25.39,0,*42
1502125268.46,8415,21.94,74388.0,6.61,-23.19,-25.45,0,*4B
1502125269.74,8416,21.94,74386.3,6.61,-23.49,-25.75,0,*4E
1502125271.01,8417,21.94,74390.0,6.61,-23.29,-25.45,0,*4A
1502125272.27,8418,21.94,74390.5,6.61,-23.29,-25.45,0,*45
1502125273.55,8419,21.94,74390.3,6.61,-23.33,-25.45,0,*4F
1502125274.8,8420,21.94,74390.5,6.59,-23.19,-25.45,0,*46
1502125275.99,8421,21.94,74390.3,6.59,-23.13,-25.23,0,*4D
1502125277.24,8422,21.94,74390.5,6.59,-23.19,-25.45,0,*44
1502125278.47,8423,21.94,74388.5,6.59,-23.19,-25.39,0,*4E
1502125279.73,8424,21.94,74390.8,6.59,-23.03,-25.29,0,*43
1502125280.98,8425,21.94,74390.5,6.59,-23.03,-25.29,0,*42
1502125282.22,8426,21.94,74390.3,6.59,-23.29,-25.45,0,*43
1502125283.47,8427,21.94,74388.0,6.61,-23.13,-25.29,0,*4A
1502125284.72,8428,21.94,74388.8,6.59,-23.29,-25.45,0,*4D
1502125285.97,8429,21.94,74390.3,6.59,-23.29,-25.55,0,*4D
1502125287.23,8430,21.94,74390.3,6.61,-23.19,-25.39,0,*47
1502125288.48,8431,21.94,74388.5,6.59,-23.19,-25.45,0,*46
1502125289.7,8432,21.94,74390.3,6.59,-22.97,-25.29,0,*48
1502125290.93,8433,21.94,74392.0,6.59,-23.03,-25.23,0,*4F
1502125292.16,8434,21.94,74384.5,6.59,-23.13,-25.29,0,*43
1502125293.41,8435,21.94,74386.8,6.59,-23.03,-25.29,0,*43
1502125294.66,8436,21.94,74390.8,6.59,-23.03,-25.29,0,*40
1502125295.89,8437,21.94,74392.0,6.59,-23.13,-25.29,0,*40
1502125297.09,8438,21.94,74388.8,6.59,-22.97,-25.39,0,*43
1502125298.34,8439,21.94,74384.0,6.61,-22.97,-25.29,0,*48
1502125299.57,8440,21.94,74386.8,6.59,-22.97,-25.29,0,*4D
1502125300.8,8441,21.94,74386.8,6.59,-22.97,-25.29,0,*4C
1502125302.0,8442,21.94,74388.3,6.59,-22.87,-25.09,0,*4C
1502125303.22,8443,21.94,74386.5,6.61,-22.97,-25.23,0,*4F
1502125304.48,8444,21.94,74388.5,6.59,-23.03,-25.29,0,*45
1502125305.7,8445,21.94,74386.8,6.61,-22.97,-25.23,0,*49
1502125306.93,8446,21.94,74390.3,6.59,-23.13,-25.29,0,*46
1502125308.16,8447,21.94,74386.5,6.59,-23.29,-25.65,0,*46
1502125309.41,8448,21.94,74388.5,6.59,-23.29,-25.55,0,*4A
1502125310.66,8449,21.94,74388.8,6.59,-23.19,-25.45,0,*49
1502125311.91,8450,21.94,74388.0,6.59,-23.29,-25.45,0,*42
1502125313.14,8451,21.94,74384.3,6.59,-23.19,-25.39,0,*4B
1502125314.39,8452,21.94,74388.3,6.59,-23.29,-25.55,0,*41
1502125315.64,8453,21.94,74386.3,6.59,-23.19,-25.45,0,*42
1502125316.86,8454,21.94,74384.0,6.57,-23.39,-25.61,0,*4F
1502125318.09,8455,21.94,74388.3,6.57,-23.39,-25.65,0,*4A
1502125319.32,8456,21.94,74390.0,6.53,-23.43,-25.65,0,*40
1502125320.56,8457,21.94,74384.8,6.57,-23.39,-25.71,0,*4D
1502125321.81,8458,21.94,74386.5,6.57,-23.49,-25.91,0,*4B
1502125323.06,8459,21.94,74384.5,6.53,-23.53,-25.87,0,*42
1502125324.31,8460,21.94,74386.5,6.57,-23.33,-25.65,0,*46
1502125325.56,8461,21.94,74388.3,6.57,-23.03,-25.35,0,*41
1502125326.78,8462,21.94,74390.5,6.53,-22.97,-25.35,0,*4A
1502125328.0,8463,21.94,74390.8,6.53,-23.13,-25.35,0,*46
1502125329.24,8464,21.94,74388.5,6.53,-22.67,-25.03,0,*46
1502125330.46,8465,21.94,74386.8,6.53,-23.39,-25.49,0,*43
1502125331.69,8466,21.94,74386.3,6.53,-23.09,-25.23,0,*4F
1502125332.91,8467,21.94,74390.3,6.53,-23.09,-25.39,0,*45
1502125334.16,8468,21.94,74388.0,6.57,-23.09,-25.45,0,*45
1502125335.41,8469,21.94,74388.8,6.53,-23.29,-25.49,0,*4E
1502125336.64,8470,21.94,74390.3,6.53,-23.13,-25.39,0,*48
1502125337.91,8471,21.94,74390.3,6.57,-23.19,-25.45,0,*4C
1502125339.16,8472,21.94,74388.0,6.53,-23.23,-25.39,0,*49
1502125340.37,8473,21.94,74384.0,6.53,-23.13,-25.23,0,*40
1502125341.65,8474,21.94,74384.5,6.53,-23.29,-25.55,0,*4F
1502125342.87,8475,21.94,74384.5,6.53,-23.09,-25.35,0,*4A
1502125344.1,8476,21.94,74390.3,6.53,-22.93,-25.09,0,*44
1502125345.32,8477,21.94,74388.8,6.53,-22.97,-25.19,0,*40
1502125346.55,8478,21.94,74392.5,6.57,-23.09,-25.35,0,*43
1502125347.77,8479,21.94,74390.5,6.53,-23.09,-25.35,0,*46
1502125349.0,8480,21.94,74390.5,6.51,-23.13,-25.49,0,*42
1502125350.28,8481,21.94,74390.8,6.53,-23.29,-25.55,0,*45
1502125351.5,8482,21.94,74388.3,6.53,-23.39,-25.65,0,*44
1502125352.74,8483,21.94,74386.5,6.53,-23.39,-25.55,0,*46
1502125353.97,8484,21.94,74388.0,6.53,-23.09,-25.39,0,*48
1502125355.19,8485,21.94,74386.3,6.53,-23.13,-25.35,0,*4E
1502125356.44,8486,21.94,74390.3,6.53,-23.23,-25.49,0,*45
1502125357.66,8487,21.94,74388.0,6.53,-23.43,-25.65,0,*4C
1502125358.94,8488,21.94,74384.5,6.51,-23.53,-25.75,0,*41
1502125360.17,8489,21.94,74388.8,6.49,-23.33,-25.61,0,*4A
1502125361.4,8490,21.94,74382.3,6.51,-22.97,-25.23,0,*42
1502125362.64,8491,21.94,74388.8,6.49,-23.33,-25.45,0,*45
1502125363.89,8492,21.94,74392.0,6.49,-23.03,-25.29,0,*4F
1502125365.11,8493,21.94,74386.8,6.49,-23.13,-25.29,0,*4F
1502125366.36,8494,21.94,74384.3,6.49,-23.29,-25.55,0,*4A
1502125367.61,8495,21.94,74388.3,6.51,-23.23,-25.39,0,*42
1502125368.86,8496,21.94,74386.3,6.49,-23.29,-25.55,0,*48
1502125370.09,8497,21.94,74388.5,6.49,-23.19,-25.39,0,*40
1502125371.31,8498,21.94,74390.5,6.51,-23.13,-25.35,0,*40
1502125372.5,8499,21.94,74386.8,6.49,-23.39,-25.65,0,*45
1502125373.76,8500,21.94,74390.8,6.51,-23.23,-25.49,0,*48
1502125374.98,8501,21.94,74388.8,6.51,-23.13,-25.39,0,*4D
1502125376.21,8502,21.94,74388.5,6.49,-23.29,-25.61,0,*43
1502125377.46,8503,21.88,74386.8,6.49,-23.29,-25.55,0,*45
1502125378.69,8504,21.94,74388.5,6.49,-23.29,-25.61,0,*45
1502125379.94,8505,21.94,74390.3,6.49,-23.29,-25.55,0,*43
1502125381.17,8506,21.94,74390.5,6.49,-23.33,-25.61,0,*4C
1502125382.42,8507,21.94,74388.8,6.49,-23.49,-25.71,0,*41
1502125383.67,8508,21.94,74388.5,6.49,-23.49,-25.75,0,*4A
1502125384.94,8509,21.94,74388.8,6.47,-23.49,-25.75,0,*45
1502125386.15,8510,21.94,74390.3,6.49,-23.43,-25.61,0,*4C
1502125387.4,8511,21.94,74388.5,6.49,-23.49,-25.75,0,*42
1502125388.65,8512,21.94,74386.8,6.49,-23.49,-25.75,0,*41
1502125389.85,8513,21.94,74386.0,6.45,-23.39,-25.49,0,*44
1502125391.11,8514,21.94,74390.3,6.47,-23.33,-25.45,0,*47
1502125392.33,8515,21.94,74388.0,6.47,-23.39,-25.61,0,*4A
1502125393.55,8516,21.94,74386.8,6.47,-23.39,-25.61,0,*49
1502125394.75,8517,21.94,74388.5,6.45,-23.39,-25.65,0,*4E
1502125395.96,8518,21.94,74390.8,6.47,-23.39,-25.65,0,*43
1502125397.21,8519,21.94,74392.5,6.47,-23.23,-25.35,0,*4C
1502125398.46,8520,21.94,74388.5,6.47,-23.09,-25.29,0,*43
1502125399.67,8521,21.94,74388.3,6.45,-23.23,-25.35,0,*45
1502125400.9,8522,21.94,74386.8,6.45,-23.33,-25.49,0,*4C
1502125402.15,8523,21.94,74390.0,6.47,-23.33,-25.49,0,*4F
1502125403.39,8524,21.94,74390.8,6.45,-23.33,-25.45,0,*46
1502125404.6,8525,21.94,74392.5,6.45,-23.23,-25.35,0,*41
1502125405.84,8526,21.94,74390.0,6.47,-23.23,-25.35,0,*40
1502125407.09,8527,21.94,74388.3,6.47,-23.23,-25.35,0,*41
1502125408.31,8528,21.94,74388.0,6.47,-23.09,-25.35,0,*46
1502125409.56,8529,21.94,74392.0,6.47,-23.23,-25.49,0,*44
1502125410.83,8530,21.94,74388.8,6.47,-23.33,-25.45,0,*41
1502125412.05,8531,21.94,74388.5,6.45,-23.09,-25.29,0,*41
1502125413.32,8532,21.94,74390.3,6.47,-23.19,-25.45,0,*4B
1502125414.59,8533,21.94,74388.5,6.47,-23.03,-25.29,0,*4B
1502125415.83,8534,21.94,74386.0,6.45,-23.03,-25.29,0,*4E
1502125417.07,8535,21.94,74388.0,6.47,-23.23,-25.35,0,*42
1502125418.34,8536,21.94,74386.0,6.47,-23.23,-25.45,0,*46
1502125419.59,8537,21.94,74390.3,6.45,-23.19,-25.29,0,*46
1502125420.83,8538,21.94,74388.8,6.45,-23.03,-25.29,0,*42
1502125422.02,8539,21.94,74388.3,6.45,-23.39,-25.61,0,*46
1502125423.22,8540,21.94,74388.0,6.45,-23.09,-25.35,0,*4A
1502125424.41,8541,21.94,74390.0,6.45,-23.39,-25.61,0,*49
1502125425.64,8542,21.94,74386.0,6.45,-23.49,-25.61,0,*4D
1502125426.89,8543,21.94,74386.5,6.47,-23.33,-25.49,0,*49
1502125428.16,8544,21.94,74390.0,6.47,-23.23,-25.45,0,*43
1502125429.41,8545,21.94,74384.8,6.47,-23.33,-25.61,0,*45
1502125430.63,8546,21.94,74390.0,6.45,-23.33,-25.61,0,*44
1502125431.85,8547,21.94,74384.5,6.45,-23.23,-25.49,0,*4E
1502125433.08,8548,21.94,74386.3,6.45,-23.33,-25.49,0,*40
1502125434.32,8549,21.94,74386.3,6.45,-23.23,-25.45,0,*4C
1502125435.56,8550,21.94,74390.5,6.45,-23.19,-25.45,0,*4D
1502125436.78,8551,21.94,74388.8,6.45,-23.23,-25.49,0,*49
1502125438.02,8552,21.94,74388.8,6.45,-23.19,-25.45,0,*4F
1502125439.26,8553,21.94,74388.0,6.45,-23.23,-25.45,0,*47
1502125440.49,8554,21.94,74386.0,6.45,-23.23,-25.61,0,*46
1502125441.68,8555,21.94,74388.5,6.45,-23.39,-25.61,0,*4C
1502125442.9,8556,21.94,74390.3,6.45,-23.33,-25.49,0,*4F
1502125444.13,8557,21.94,74390.8,6.45,-23.23,-25.61,0,*45
1502125445.37,8558,21.94,74390.8,6.45,-23.23,-25.45,0,*4C
1502125446.62,8559,21.94,74388.3,6.47,-23.23,-25.49,0,*43
1502125447.84,8560,21.94,74386.8,6.45,-23.09,-25.29,0,*45
1502125449.08,8561,21.94,74384.3,6.45,-23.23,-25.45,0,*46
1502125450.27,8562,21.94,74386.3,6.45,-23.09,-25.19,0,*44
1502125451.52,8563,21.94,74388.0,6.45,-23.03,-25.29,0,*4C
1502125452.76,8564,21.94,74388.0,6.45,-23.19,-25.45,0,*4A
1502125454.0,8565,21.94,74388.5,6.45,-22.73,-24.87,0,*49
1502125455.24,8566,21.94,74390.0,6.45,-22.73,-25.03,0,*47
1502125456.51,8567,21.94,74384.3,6.47,-23.19,-25.45,0,*4B
1502125457.7,8568,21.94,74392.0,6.45,-23.39,-25.49,0,*48
1502125458.9,8569,21.94,74390.0,6.45,-23.09,-25.35,0,*41
1502125460.12,8570,21.94,74388.0,6.45,-23.19,-25.35,0,*48
1502125461.34,8571,21.94,74390.0,6.45,-23.33,-25.61,0,*40
1502125462.59,8572,21.94,74388.5,6.43,-23.23,-25.49,0,*4E
1502125463.78,8573,21.94,74386.3,6.45,-23.39,-25.61,0,*48
1502125465.01,8574,21.94,74390.8,6.45,-23.33,-25.61,0,*45
1502125466.23,8575,21.94,74390.8,6.45,-23.23,-25.49,0,*4F
1502125467.48,8576,21.94,74386.8,6.43,-23.39,-25.55,0,*4C
1502125468.73,8577,21.94,74390.3,6.43,-23.43,-25.71,0,*46
1502125469.96,8578,21.94,74390.0,6.45,-23.33,-25.61,0,*49
1502125471.15,8579,21.94,74390.8,6.45,-23.39,-25.65,0,*46
1502125472.42,8580,21.94,74388.0,6.43,-23.23,-25.55,0,*4E
1502125473.7,8581,21.94,74390.3,6.43,-23.29,-25.55,0,*45
1502125474.95,8582,21.94,74386.0,6.43,-23.29,-25.49,0,*4B
1502125476.19,8583,21.94,74390.8,6.43,-23.39,-25.71,0,*40
1502125477.45,8584,21.94,74390.8,6.43,-23.43,-25.81,0,*45
1502125478.7,8585,21.94,74390.8,6.43,-23.43,-25.71,0,*4B
1502125479.95,8586,21.94,74390.0,6.43,-23.53,-25.87,0,*40
1502125481.22,8587,21.94,74386.8,6.43,-23.53,-25.81,0,*47
1502125482.45,8588,21.94,74386.8,6.41,-23.29,-25.65,0,*4D
1502125483.67,8589,21.94,74384.5,6.41,-23.43,-25.81,0,*4A
1502125484.88,8590,21.94,74386.0,6.41,-23.43,-25.65,0,*48
1502125486.13,8591,21.94,74386.8,6.39,-23.49,-25.61,0,*48
1502125487.38,8592,21.94,74388.3,6.39,-23.49,-25.91,0,*44
1502125488.61,8593,21.94,74386.8,6.41,-23.43,-25.71,0,*4E
1502125489.86,8594,21.94,74390.0,6.41,-23.53,-25.81,0,*47
1502125491.11,8595,21.94,74384.8,6.41,-23.53,-25.81,0,*46
1502125492.35,8596,21.94,74390.3,6.43,-23.29,-25.39,0,*49
1502125493.58,8597,21.94,74390.5,6.41,-23.43,-25.71,0,*4A
1502125494.81,8598,21.94,74388.8,6.41,-23.29,-25.39,0,*45
1502125496.03,8599,21.94,74386.0,6.41,-23.29,-25.39,0,*44
1502125497.28,8600,21.94,74386.8,6.43,-23.29,-25.49,0,*42
1502125498.51,8601,21.94,74386.3,6.41,-23.23,-25.49,0,*4B
1502125499.74,8602,21.94,74388.8,6.41,-23.29,-25.65,0,*4C
1502125500.98,8603,21.94,74386.3,6.43,-23.39,-25.55,0,*4D
1502125502.26,8604,21.94,74388.0,6.39,-23.33,-25.71,0,*4B
1502125503.54,8605,21.94,74390.0,6.39,-23.29,-25.55,0,*47
1502125504.76,8606,21.94,74386.8,6.39,-23.13,-25.39,0,*47
1502125506.01,8607,21.94,74384.8,6.39,-23.19,-25.39,0,*4C
1502125507.24,8608,21.94,74386.3,6.37,-23.33,-25.49,0,*42
1502125508.49,8609,21.94,74390.3,6.39,-23.33,-25.61,0,*47
1502125509.69,8610,21.94,74390.0,6.41,-23.09,-25.35,0,*48
1502125510.97,8611,21.94,74386.8,6.39,-23.29,-25.55,0,*42
1502125512.25,8612,21.94,74390.8,6.39,-23.33,-25.55,0,*4A
1502125513.52,8613,21.94,74390.3,6.39,-23.29,-25.45,0,*41
1502125514.79,8614,21.94,74384.5,6.39,-23.33,-25.55,0,*4C
1502125516.07,8615,21.94,74388.3,6.39,-23.33,-25.71,0,*4B
1502125517.33,8616,21.94,74390.3,6.39,-23.29,-25.61,0,*42
1502125518.58,8617,21.94,74386.0,6.39,-23.33,-25.61,0,*48
1502125519.84,8618,21.94,74388.8,6.39,-23.43,-25.71,0,*41
1502125521.09,8619,21.94,74388.0,6.39,-23.49,-25.61,0,*4B
1502125522.34,8620,21.94,74386.0,6.37,-23.53,-25.75,0,*41
1502125523.57,8621,21.94,74388.5,6.37,-23.33,-25.61,0,*43
1502125524.76,8622,21.94,74386.3,6.37,-23.39,-25.65,0,*4E
1502125526.01,8623,21.94,74388.0,6.37,-23.33,-25.75,0,*44
1502125527.28,8624,21.94,74388.5,6.39,-23.49,-25.75,0,*40
1502125528.54,8625,21.94,74386.8,6.37,-23.53,-25.75,0,*44
1502125529.77,8626,21.94,74388.5,6.37,-23.23,-25.45,0,*43
1502125531.02,8627,21.94,74388.0,6.37,-23.33,-25.45,0,*43
1502125532.23,8628,21.94,74386.0,6.37,-23.39,-25.75,0,*45
1502125533.46,8629,21.94,74390.0,6.37,-23.33,-25.49,0,*41
1502125534.72,8630,21.94,74390.0,6.39,-23.43,-25.71,0,*4B
1502125535.91,8631,21.94,74388.3,6.37,-23.39,-25.65,0,*4C
1502125537.13,8632,21.94,74388.8,6.37,-23.33,-25.49,0,*4B
1502125538.38,8633,21.94,74386.3,6.37,-23.19,-25.45,0,*4E
1502125539.57,8634,21.94,74390.5,6.37,-23.39,-25.49,0,*47
1502125540.8,8635,21.94,74388.0,6.37,-23.33,-25.49,0,*4C
1502125542.07,8636,21.94,74386.0,6.39,-23.19,-25.45,0,*45
1502125543.31,8637,21.94,74388.0,6.37,-23.23,-25.45,0,*43
1502125544.52,8638,21.94,74386.8,6.37,-23.39,-25.75,0,*44
1502125545.72,8639,21.94,74390.3,6.37,-23.39,-25.49,0,*4A
1502125546.94,8640,21.94,74386.3,6.37,-23.33,-25.65,0,*40
1502125548.16,8641,21.94,74390.8,6.37,-23.49,-25.65,0,*4C
1502125549.36,8642,21.94,74390.0,6.37,-23.39,-25.65,0,*48
1502125550.55,8643,21.94,74390.3,6.37,-23.39,-25.49,0,*47
1502125551.74,8644,21.94,74388.0,6.37,-23.39,-25.61,0,*4A
1502125552.94,8645,21.94,74390.3,6.37,-23.39,-25.65,0,*4F
1502125554.16,8646,21.94,74390.5,6.37,-23.33,-25.61,0,*42
1502125555.44,8647,21.94,74390.8,6.35,-23.53,-25.75,0,*42
1502125556.69,8648,21.94,74390.3,6.37,-23.49,-25.75,0,*44
1502125557.94,8649,21.94,74394.0,6.37,-23.49,-25.75,0,*45
1502125559.19,8650,21.94,74390.0,6.35,-23.33,-25.61,0,*47
1502125560.47,8651,21.94,74386.5,6.35,-23.19,-25.45,0,*48
1502125561.74,8652,21.94,74388.8,6.35,-23.19,-25.45,0,*4B
1502125562.93,8653,21.94,74392.0,6.37,-23.39,-25.61,0,*4C
1502125564.19,8654,21.94,74388.3,6.35,-23.33,-25.65,0,*47
1502125565.44,8655,21.94,74388.8,6.35,-23.49,-25.65,0,*4B
1502125566.69,8656,21.94,74390.0,6.35,-23.33,-25.65,0,*45
1502125567.94,8657,21.94,74390.3,6.35,-23.39,-25.75,0,*4F
1502125569.16,8658,21.94,74390.0,6.35,-23.39,-25.61,0,*45
1502125570.39,8659,21.94,74388.5,6.35,-23.39,-25.65,0,*40
1502125571.61,8660,21.94,74394.5,6.35,-23.09,-25.35,0,*4C
1502125572.83,8661,21.94,74390.3,6.35,-23.39,-25.65,0,*4B
1502125574.09,8662,21.94,74390.8,6.35,-23.33,-25.49,0,*4C
1502125575.31,8663,21.94,74392.5,6.35,-23.39,-25.65,0,*49
1502125576.56,8664,21.94,74388.3,6.31,-23.29,-25.61,0,*4F
1502125577.79,8665,21.94,74386.8,6.35,-23.39,-25.61,0,*4B
1502125579.04,8666,21.94,74392.0,6.35,-23.49,-25.65,0,*4B
1502125580.32,8667,21.94,74392.8,6.31,-23.29,-25.55,0,*4B
1502125581.57,8668,21.94,74392.0,6.35,-23.23,-25.49,0,*47
1502125582.83,8669,21.94,74392.5,6.35,-23.23,-25.49,0,*46
1502125584.05,8670,21.94,74388.8,6.31,-23.39,-25.65,0,*4F
1502125585.27,8671,21.94,74394.0,6.37,-23.23,-25.49,0,*4D
1502125586.49,8672,21.94,74390.3,6.31,-23.39,-25.65,0,*4D
1502125587.75,8673,21.94,74388.5,6.35,-23.23,-25.49,0,*4D
1502125589.0,8674,21.94,74392.0,6.35,-23.33,-25.61,0,*41
1502125590.25,8675,21.94,74390.0,6.31,-23.39,-25.71,0,*4F
1502125591.51,8676,21.94,74392.0,6.31,-23.43,-25.71,0,*41
1502125592.73,8677,21.94,74390.8,6.31,-23.39,-25.65,0,*48
1502125593.98,8678,21.94,74388.0,6.31,-23.39,-25.71,0,*42
1502125595.2,8679,21.94,74390.5,6.31,-23.39,-25.65,0,*46
1502125596.48,8680,21.94,74388.8,6.31,-23.53,-25.81,0,*46
1502125597.73,8681,21.94,74388.5,6.31,-23.43,-25.71,0,*49
1502125599.01,8682,21.94,74388.5,6.31,-23.53,-25.71,0,*4B
1502125600.26,8683,21.94,74390.8,6.31,-23.39,-25.55,0,*40
1502125601.51,8684,21.94,74388.3,6.31,-23.39,-25.55,0,*47
1502125602.73,8685,21.94,74394.3,6.31,-23.39,-25.65,0,*45
1502125603.98,8686,21.94,74394.3,6.31,-23.29,-25.65,0,*47
1502125605.23,8687,21.94,74388.5,6.31,-23.39,-25.55,0,*44
1502125606.48,8688,21.94,74386.5,6.31,-23.39,-25.55,0,*4B
1502125607.73,8689,21.94,74388.0,6.31,-23.29,-25.65,0,*48
1502125608.98,8690,21.94,74390.3,6.29,-23.49,-25.71,0,*4A
1502125610.24,8691,21.94,74390.8,6.29,-23.49,-25.71,0,*4B
1502125611.43,8692,21.94,74390.3,6.29,-23.59,-25.91,0,*47
1502125612.68,8693,21.94,74388.8,6.29,-23.33,-25.55,0,*42
1502125613.92,8694,21.94,74390.8,6.29,-23.43,-25.71,0,*44
1502125615.13,8695,21.94,74388.8,6.29,-23.65,-25.91,0,*4F
1502125616.35,8696,21.94,74390.3,6.29,-23.65,-25.87,0,*4B
1502125617.6,8697,21.94,74390.5,6.27,-23.65,-25.91,0,*43
1502125618.82,8698,21.94,74388.8,6.29,-23.65,-25.87,0,*45
1502125620.07,8699,21.94,74390.3,6.27,-23.65,-25.87,0,*4A
1502125621.27,8700,21.94,74388.5,6.29,-23.59,-25.91,0,*4D
1502125622.53,8701,21.94,74390.0,6.27,-23.59,-25.75,0,*48
1502125623.76,8702,21.94,74388.8,6.27,-23.75,-25.91,0,*4F
1502125624.96,8703,21.94,74390.8,6.29,-23.75,-26.07,0,*4C
1502125626.21,8704,21.94,74390.8,6.27,-23.65,-25.91,0,*48
1502125627.47,8705,21.94,74394.0,6.27,-23.59,-25.75,0,*4C
1502125628.73,8706,21.94,74388.5,6.27,-23.43,-25.71,0,*40
1502125630.01,8707,21.94,74390.8,6.27,-23.65,-25.75,0,*41
1502125631.27,8708,21.94,74394.3,6.25,-23.49,-25.75,0,*42
1502125632.55,8709,21.94,74394.8,6.27,-23.49,-25.71,0,*45
1502125633.79,8710,21.94,74390.5,6.27,-23.43,-25.61,0,*46
1502125635.03,8711,21.94,74394.0,6.27,-23.43,-25.61,0,*47
1502125636.29,8712,21.94,74390.3,6.27,-23.43,-25.71,0,*45
1502125637.55,8713,21.94,74388.8,6.25,-23.53,-25.75,0,*43
1502125638.78,8714,21.94,74388.5,6.27,-23.59,-25.87,0,*41
1502125640.06,8715,21.94,74390.8,6.23,-23.49,-25.75,0,*48
1502125641.26,8716,21.94,74390.8,6.25,-23.39,-25.65,0,*4B
1502125642.49,8717,21.94,74388.3,6.25,-23.19,-25.49,0,*46
1502125643.75,8718,21.94,74388.8,6.25,-23.53,-25.75,0,*48
1502125645.01,8719,22.0,74394.5,6.25,-23.49,-25.75,0,*42
1502125646.22,8720,21.94,74392.5,6.25,-23.39,-25.49,0,*40
1502125647.45,8721,21.94,74388.3,6.25,-23.33,-25.49,0,*4B
1502125648.71,8722,21.94,74390.8,6.25,-23.49,-25.75,0,*4A
1502125649.97,8723,21.94,74392.0,6.25,-23.49,-25.75,0,*4B
1502125651.17,8724,21.94,74388.3,6.25,-23.39,-25.61,0,*4E
1502125652.37,8725,21.94,74392.5,6.25,-23.39,-25.65,0,*4B
1502125653.6,8726,21.94,74390.8,6.25,-23.49,-25.65,0,*4F
1502125654.86,8727,21.94,74388.8,6.25,-23.53,-25.81,0,*4F
1502125656.09,8728,21.94,74390.8,6.25,-23.23,-25.49,0,*43
1502125657.32,8729,21.94,74388.0,6.25,-23.23,-25.61,0,*48
1502125658.53,8730,21.94,74388.5,6.25,-23.39,-25.61,0,*4B
1502125659.73,8731,21.94,74392.8,6.25,-23.39,-25.65,0,*4E
1502125660.96,8732,21.94,74388.3,6.25,-23.33,-25.61,0,*43
1502125662.2,8733,21.94,74390.3,6.25,-23.23,-25.61,0,*43
1502125663.4,8734,22.0,74392.3,6.25,-23.39,-25.65,0,*4B
1502125664.66,8735,21.94,74390.0,6.25,-23.53,-25.75,0,*47
1502125665.92,8736,21.94,74388.0,6.25,-23.53,-25.75,0,*44
1502125667.15,8737,21.94,74390.5,6.25,-23.33,-25.49,0,*4C
1502125668.43,8738,21.94,74392.3,6.23,-23.49,-25.75,0,*47
1502125669.69,8739,21.94,74388.5,6.25,-23.49,-25.75,0,*40
1502125670.95,8740,21.94,74390.0,6.23,-23.23,-25.61,0,*41
1502125672.17,8741,21.94,74390.8,6.23,-23.39,-25.65,0,*4F
1502125673.43,8742,21.94,74388.5,6.25,-23.53,-25.81,0,*4C
1502125674.71,8743,21.94,74390.5,6.23,-23.53,-25.75,0,*40
1502125675.94,8744,21.94,74390.5,6.25,-23.39,-25.75,0,*4D
1502125677.2,8745,21.94,74390.0,6.25,-23.53,-25.75,0,*40
1502125678.45,8746,21.94,74394.0,6.23,-23.49,-25.65,0,*4F
1502125679.74,8747,21.94,74388.8,6.23,-23.53,-25.75,0,*44
1502125680.99,8748,21.94,74392.0,6.23,-23.39,-25.75,0,*47
1502125682.27,8749,21.94,74390.3,6.23,-23.53,-25.81,0,*41
1502125683.52,8750,21.94,74390.8,6.23,-23.53,-25.65,0,*43
1502125684.73,8751,21.94,74390.3,6.21,-23.43,-25.65,0,*41
1502125685.96,8752,21.94,74392.5,6.21,-23.59,-25.71,0,*4C
1502125687.18,8753,21.94,74388.8,6.21,-23.59,-25.81,0,*42
1502125688.41,8754,21.94,74392.8,6.21,-23.59,-25.81,0,*45
1502125689.64,8755,21.94,74392.8,6.19,-23.59,-25.71,0,*40
1502125690.88,8756,21.94,74388.3,6.19,-23.43,-25.71,0,*48
1502125692.08,8757,21.94,74390.3,6.21,-23.59,-25.87,0,*40
1502125693.31,8758,21.94,74390.3,6.21,-23.43,-25.71,0,*4D
1502125694.56,8759,21.94,74390.0,6.21,-23.53,-25.71,0,*4D
1502125695.78,8760,21.94,74388.8,6.21,-23.69,-25.87,0,*47
1502125696.98,8761,21.94,74390.0,6.19,-23.59,-25.87,0,*4E
1502125698.19,8762,21.94,74392.0,6.21,-23.69,-25.87,0,*45
1502125699.41,8763,21.94,74390.3,6.19,-23.69,-25.87,0,*4F
1502125700.67,8764,21.94,74390.3,6.19,-23.53,-25.71,0,*48
1502125701.92,8765,21.94,74384.3,6.21,-23.69,-25.97,0,*43
1502125703.14,8766,21.94,74388.3,6.21,-23.59,-25.81,0,*44
1502125704.39,8767,21.94,74390.3,6.19,-23.85,-26.17,0,*43
1502125705.64,8768,21.94,74388.0,6.19,-23.69,-25.97,0,*45
1502125706.84,8769,21.94,74390.0,6.19,-23.59,-25.87,0,*46
1502125708.07,8770,21.94,74386.3,6.19,-23.69,-26.03,0,*42
1502125709.32,8771,21.94,74386.8,6.19,-23.69,-25.97,0,*4D
1502125710.56,8772,21.94,74388.3,6.19,-23.69,-25.97,0,*4E
1502125711.8,8773,21.94,74386.8,6.17,-23.75,-26.03,0,*42